Regional Weather Roundup
Issued by NWS

Home | Current Version | Previous Version | Text Only | Print | Product List | Glossary On
Versions: 1 2 3 4 5 6 7 8 9 10 11 12 13 14 15 16 17 18 19 20 21 22 23 24 25 26 27 28 29 30 31 32 33 34 35 36 37 38 39 40 41 42 43 44 45 46 47 48 49 50
000
ASUS44 KLIX 211812
RWRLA
LOUISIANA WEATHER ROUNDUP
NATIONAL WEATHER SERVICE NEW ORLEANS LA
1200 PM CST SAT JAN 21 2017

NOTE: "FAIR" INDICATES FEW OR NO CLOUDS BELOW 12,000 FEET WITH NO
      SIGNIFICANT WEATHER AND/OR OBSTRUCTIONS TO VISIBILITY.
      SKY/WX - SKY CONDITION AND SIGNIFICANT WEATHER.
      TMP - AIR TEMPERATURE.    DP   - DEWPOINT TEMPERATURE.
      RH  - RELATIVE HUMIDITY.  PRES - PRESSURE.
      HX  - HEAT INDEX.         WCI  - WIND CHILL INDEX.

*  THESE STATIONS ARE NOT NWS OR FAA STATIONS AND ARE NOT UNDER
   NWS QUALITY CONTROL.

LAZ040-048-061>063-065-066-069-211900-
SOUTHEAST LOUISIANA

CITY           SKY/WX    TMP DP  RH WIND       PRES   REMARKS
N.O. AUDUBON   NOT AVBL
N.O. INTL ARPT CLOUDY    71  63  75 SE9       29.69F
6HR MIN TEMP:  60; 6HR MAX TEMP:  73; 6HR PCP:  0.33;

N.O. LAKEFRONT MOSUNNY   70  62  76 SE12      29.70F
6HR MIN TEMP:  59; 6HR MAX TEMP:  72; 6HR PCP:  0.29;

N.O. DOWNTOWN*   N/A     71  63  75 VRB5      29.70F
6HR MIN TEMP:  60; 6HR MAX TEMP:  73;

RESERVE*       CLOUDY    73  61  66 E3        29.69F
6HR MIN TEMP:  62; 6HR MAX TEMP:  73; 6HR PCP:  0.14;

SLIDELL        PTSUNNY   74  62  66 S6        29.69F
6HR MIN TEMP:  59; 6HR MAX TEMP:  74; 6HR PCP:  0.66;

BATON ROUGE    PTSUNNY   71  60  68 E12       29.67F
6HR MIN TEMP:  60; 6HR MAX TEMP:  71;

BOOTHVILLE     CLOUDY    71  68  90 S8        29.71F
6HR MIN TEMP:  60; 6HR MAX TEMP:  73;

BELLE CHASSE   CLOUDY    69  64  84 SE6       29.70F
6HR MIN TEMP:  60; 6HR MAX TEMP:  73; 6HR PCP:  0.18;

BOGALUSA*      MOCLDY    73  60  63 S6        29.71F
6HR MIN TEMP:  62; 6HR MAX TEMP:  73; 6HR PCP:  0.03;

GALLIANO*      CLOUDY    79  71  75 SW18G25   29.70F
6HR MIN TEMP:  65; 6HR MAX TEMP:  79;

NEW ROADS*     MOCLDY    69  59  71 SE9       29.67F
6HR MIN TEMP:  60; 6HR MAX TEMP:  69;

GONZALES*      CLOUDY    69  59  69 E7        29.67F
6HR MIN TEMP:  62; 6HR MAX TEMP:  69; 6HR PCP:  0.03;

HAMMOND*       CLOUDY    70  59  68 SE6       29.69F
HOUMA*         PTSUNNY   72  66  83 E3        29.69F
PORT FOURCHON* CLEAR     75  72  88 S14       29.70F FOG

$$

LAZ041-044-053-054-211900-
SOUTHWEST LOUISIANA

CITY           SKY/WX    TMP DP  RH WIND       PRES   REMARKS
LAKE CHARLES   CLOUDY    72  68  87 SE8       29.63F
6HR MIN TEMP:  61; 6HR MAX TEMP:  72;

LAFAYETTE      PTSUNNY   72  65  78 VRB3      29.66F
6HR MIN TEMP:  64; 6HR MAX TEMP:  72;

PATTERSON      CLOUDY    69  67  93 E5        29.68F
6HR MIN TEMP:  64; 6HR MAX TEMP:  69; 6HR PCP:  0.30;

SALT POINT     NOT AVBL
NEW IBERIA     CLOUDY    72  64  76 SE8       29.67F
6HR MIN TEMP:  63; 6HR MAX TEMP:  72; 6HR PCP:  0.06;

CHENAULT AIRPK CLOUDY    72  68  88 SE7       29.63F

$$

LAZ027-028-211900-
CENTRAL LOUISIANA

CITY           SKY/WX    TMP DP  RH WIND       PRES   REMARKS
FORT POLK      CLOUDY    67  62  85 E8        29.60F
6HR MIN TEMP:  57; 6HR MAX TEMP:  67;

ALEXANDRIA INT PTSUNNY   63  60  90 S8        29.64F
6HR MIN TEMP:  57; 6HR MAX TEMP:  67;

ALEXANDRIA     CLOUDY    70  59  68 S6        29.65F
6HR MIN TEMP:  55; 6HR MAX TEMP:  71;


$$

LAZ001-002-211900-
NORTHWEST LOUISIANA

CITY           SKY/WX    TMP DP  RH WIND       PRES   REMARKS
SHREVEPORT     CLOUDY    70  62  76 SW13      29.59F
6HR MIN TEMP:  53; 6HR MAX TEMP:  71;

BARKSDALE AFB  MOSUNNY   67  60  79 SE10      29.60F
6HR MIN TEMP:  50; 6HR MAX TEMP:  67;

DTN SHREVEPORT MOSUNNY   69  60  73 S7        29.60F
6HR MIN TEMP:  53; 6HR MAX TEMP:  70;


$$

LAZ014-016-211900-
NORTHEAST LOUISIANA

CITY           SKY/WX    TMP DP  RH WIND       PRES   REMARKS
MONROE         PTSUNNY   69  58  67 VRB5      29.63F
6HR MIN TEMP:  52; 6HR MAX TEMP:  69;

TALLULAH       CLOUDY    67  60  78 SE10      29.64F
6HR MIN TEMP:  57; 6HR MAX TEMP:  67;


$$




USA.gov is the U.S. government's official web portal to all federal, state and local government web resources and services.